Location: Aalen
(48.8330°N, 10.1000°E)
Time: 19:11:22
(UTC+02:00)

Transit 4A - Pass Details

Date: 03 August 2021
Orbit: 871 x 974 km, 66.8° (Epoch: 16 September)

Event Time Altitude Azimuth Distance (km) Brightness Sun altitude
Rises 04:25:16 0° 291° (WNW) 3,470 10.7 -12.7°
Reaches altitude 10° 04:29:05 10° 316° (NW) 2,528 10.2 -12.2°
Maximum altitude 04:32:09 14° 348° (NNW) 2,231 10.3 -11.9°
Drops below altitude 10° 04:35:13 10° 20° (NNE) 2,533 11.3 -11.5°
Sets 04:39:03 0° 45° (NE) 3,481 13.2 -11.1°
